Year,Month,Day,Hour,Minute,Value (Times are PST for windspeed in km/hr)
2013,09,29,00,00,11.40
2013,09,29,00,01,11.30
2013,09,29,00,02,11.40
2013,09,29,00,03,11.30
2013,09,29,00,04,11.30
2013,09,29,00,05,11.60
2013,09,29,00,06,12.80
2013,09,29,00,07,14.00
2013,09,29,00,08,15.60
2013,09,29,00,09,16.30
2013,09,29,00,10,15.40
2013,09,29,00,11,15.00
2013,09,29,00,12,15.20
2013,09,29,00,13,15.90
2013,09,29,00,14,17.90
2013,09,29,00,15,21.20
2013,09,29,00,16,22.00
2013,09,29,00,17,22.70
2013,09,29,00,18,24.30
2013,09,29,00,19,23.80
2013,09,29,00,20,24.80
2013,09,29,00,21,27.50
2013,09,29,00,22,27.60
2013,09,29,00,23,26.90
2013,09,29,00,24,25.80
2013,09,29,00,25,24.20
2013,09,29,00,26,24.20
2013,09,29,00,27,24.70
2013,09,29,00,28,22.80
2013,09,29,00,29,22.00
2013,09,29,00,30,19.80
2013,09,29,00,31,19.10
2013,09,29,00,32,19.00
2013,09,29,00,33,17.30
2013,09,29,00,34,16.60
2013,09,29,00,35,16.10
2013,09,29,00,36,17.00
2013,09,29,00,37,14.90
2013,09,29,00,38,14.40
2013,09,29,00,39,15.60
2013,09,29,00,40,13.60
2013,09,29,00,41,12.70
2013,09,29,00,42,11.50
2013,09,29,00,43,11.90
2013,09,29,00,44,12.00
2013,09,29,00,45,13.20
2013,09,29,00,46,12.40
2013,09,29,00,47,11.70
2013,09,29,00,48,9.70
2013,09,29,00,49,6.60
2013,09,29,00,50,6.10
2013,09,29,00,51,7.30
2013,09,29,00,52,7.30
2013,09,29,00,53,6.90
2013,09,29,00,54,6.40
2013,09,29,00,55,9.80
2013,09,29,00,56,10.20
2013,09,29,00,57,11.10
2013,09,29,00,58,11.60
2013,09,29,00,59,13.20
2013,09,29,01,00,13.00
2013,09,29,01,01,12.00
2013,09,29,01,02,10.50
2013,09,29,01,03,11.20
2013,09,29,01,04,10.20
2013,09,29,01,05,9.00
2013,09,29,01,06,8.00
2013,09,29,01,07,11.00
2013,09,29,01,08,13.40
2013,09,29,01,09,13.90
2013,09,29,01,10,12.70
2013,09,29,01,11,10.70
2013,09,29,01,12,14.50
2013,09,29,01,13,12.30
2013,09,29,01,14,11.00
2013,09,29,01,15,16.70
2013,09,29,01,16,16.20
2013,09,29,01,17,18.80
2013,09,29,01,18,19.70
2013,09,29,01,19,19.60
2013,09,29,01,20,19.80
2013,09,29,01,21,18.50
2013,09,29,01,22,17.90
2013,09,29,01,23,19.90
2013,09,29,01,24,17.50
2013,09,29,01,25,13.70
2013,09,29,01,26,11.80
2013,09,29,01,27,11.40
2013,09,29,01,28,13.00
2013,09,29,01,29,14.90
2013,09,29,01,30,15.80
2013,09,29,01,31,13.10
2013,09,29,01,32,9.90
2013,09,29,01,33,6.80
2013,09,29,01,34,3.90
2013,09,29,01,35,2.00
2013,09,29,01,36,2.50
2013,09,29,01,37,4.90
2013,09,29,01,38,5.80
2013,09,29,01,39,5.70
2013,09,29,01,40,3.90
2013,09,29,01,41,1.50
2013,09,29,01,42,0.60
2013,09,29,01,43,2.00
2013,09,29,01,44,3.10
2013,09,29,01,45,3.70
2013,09,29,01,46,2.50
2013,09,29,01,47,1.30
2013,09,29,01,48,0.20
2013,09,29,01,49,0.00
2013,09,29,01,50,0.00
2013,09,29,01,51,0.20
2013,09,29,01,52,0.00
2013,09,29,01,53,0.70
2013,09,29,01,54,4.10
2013,09,29,01,55,4.00
2013,09,29,01,56,4.80
2013,09,29,01,57,4.10
2013,09,29,01,58,3.70
2013,09,29,01,59,2.80
2013,09,29,02,00,1.80
2013,09,29,02,01,0.70
2013,09,29,02,02,0.30
2013,09,29,02,03,0.00
2013,09,29,02,04,0.00
2013,09,29,02,05,0.00
2013,09,29,02,06,2.50
2013,09,29,02,07,2.80
2013,09,29,02,08,2.40
2013,09,29,02,09,2.10
2013,09,29,02,10,3.40
2013,09,29,02,11,3.60
2013,09,29,02,12,3.50
2013,09,29,02,13,3.20
2013,09,29,02,14,3.20
2013,09,29,02,15,4.30
2013,09,29,02,16,5.30
2013,09,29,02,17,5.90
2013,09,29,02,18,4.00
2013,09,29,02,19,4.50
2013,09,29,02,20,5.10
2013,09,29,02,21,5.60
2013,09,29,02,22,6.30
2013,09,29,02,23,7.00
2013,09,29,02,24,7.20
2013,09,29,02,25,6.60
2013,09,29,02,26,6.20
2013,09,29,02,27,4.60
2013,09,29,02,28,6.10
2013,09,29,02,29,6.40
2013,09,29,02,30,5.70
2013,09,29,02,31,5.10
2013,09,29,02,32,5.00
2013,09,29,02,33,4.90
2013,09,29,02,34,6.40
2013,09,29,02,35,6.90
2013,09,29,02,36,6.60
2013,09,29,02,37,5.00
2013,09,29,02,38,4.20
2013,09,29,02,39,4.20
2013,09,29,02,40,3.00
2013,09,29,02,41,4.30
2013,09,29,02,42,4.80
2013,09,29,02,43,4.40
2013,09,29,02,44,5.00
2013,09,29,02,45,5.90
2013,09,29,02,46,7.70
2013,09,29,02,47,7.10
2013,09,29,02,48,6.40
2013,09,29,02,49,6.90
2013,09,29,02,50,7.30
2013,09,29,02,51,6.10
2013,09,29,02,52,4.70
2013,09,29,02,53,5.10
2013,09,29,02,54,5.40
2013,09,29,02,55,5.40
2013,09,29,02,56,5.00
2013,09,29,02,57,5.20
2013,09,29,02,58,7.70
2013,09,29,02,59,11.50
2013,09,29,03,00,14.20
2013,09,29,03,01,15.30
2013,09,29,03,02,15.60
2013,09,29,03,03,16.70
2013,09,29,03,04,17.50
2013,09,29,03,05,17.00
2013,09,29,03,06,15.70
2013,09,29,03,07,14.00
2013,09,29,03,08,13.00
2013,09,29,03,09,12.20
2013,09,29,03,10,12.50
2013,09,29,03,11,12.00
2013,09,29,03,12,12.40
2013,09,29,03,13,14.00
2013,09,29,03,14,13.70
2013,09,29,03,15,14.00
2013,09,29,03,16,15.40
2013,09,29,03,17,16.50
2013,09,29,03,18,17.50
2013,09,29,03,19,19.20
2013,09,29,03,20,19.10
2013,09,29,03,21,18.30
2013,09,29,03,22,18.70
2013,09,29,03,23,20.30
2013,09,29,03,24,20.80
2013,09,29,03,25,20.50
2013,09,29,03,26,20.10
2013,09,29,03,27,20.00
2013,09,29,03,28,21.80
2013,09,29,03,29,21.30
2013,09,29,03,30,21.30
2013,09,29,03,31,21.30
2013,09,29,03,32,22.60
2013,09,29,03,33,22.80
2013,09,29,03,34,22.10
2013,09,29,03,35,21.80
2013,09,29,03,36,21.10
2013,09,29,03,37,20.90
2013,09,29,03,38,20.50
2013,09,29,03,39,19.90
2013,09,29,03,40,19.10
2013,09,29,03,41,19.60
2013,09,29,03,42,18.50
2013,09,29,03,43,18.20
2013,09,29,03,44,18.30
2013,09,29,03,45,19.20
2013,09,29,03,46,19.10
2013,09,29,03,47,20.30
2013,09,29,03,48,20.10
2013,09,29,03,49,20.10
2013,09,29,03,50,19.70
2013,09,29,03,51,19.40
2013,09,29,03,52,19.10
2013,09,29,03,53,18.70
2013,09,29,03,54,19.10
2013,09,29,03,55,19.50
2013,09,29,03,56,20.00
2013,09,29,03,57,19.50
2013,09,29,03,58,19.50
2013,09,29,03,59,18.80
2013,09,29,04,00,19.00
2013,09,29,04,01,18.50
2013,09,29,04,02,18.40
2013,09,29,04,03,18.10
2013,09,29,04,04,17.90
2013,09,29,04,05,17.80
2013,09,29,04,06,16.40
2013,09,29,04,07,16.80
2013,09,29,04,08,16.50
2013,09,29,04,09,16.90
2013,09,29,04,10,17.50
2013,09,29,04,11,17.80
2013,09,29,04,12,17.90
2013,09,29,04,13,17.10
2013,09,29,04,14,16.20
2013,09,29,04,15,15.10
2013,09,29,04,16,13.40
2013,09,29,04,17,13.10
2013,09,29,04,18,13.00
2013,09,29,04,19,13.40
2013,09,29,04,20,13.00
2013,09,29,04,21,11.40
2013,09,29,04,22,10.90
2013,09,29,04,23,10.10
2013,09,29,04,24,10.30
2013,09,29,04,25,9.10
2013,09,29,04,26,8.10
2013,09,29,04,27,5.60
2013,09,29,04,28,3.30
2013,09,29,04,29,2.00
2013,09,29,04,30,3.60
2013,09,29,04,31,5.00
2013,09,29,04,32,5.80
2013,09,29,04,33,5.00
2013,09,29,04,34,5.00
2013,09,29,04,35,4.70
2013,09,29,04,36,5.00
2013,09,29,04,37,4.20
2013,09,29,04,38,3.30
2013,09,29,04,39,5.60
2013,09,29,04,40,4.30
2013,09,29,04,41,4.10
2013,09,29,04,42,4.70
2013,09,29,04,43,6.90
2013,09,29,04,44,5.30
2013,09,29,04,45,6.00
2013,09,29,04,46,6.40
2013,09,29,04,47,5.90
2013,09,29,04,48,5.50
2013,09,29,04,49,5.50
2013,09,29,04,50,6.60
2013,09,29,04,51,7.30
2013,09,29,04,52,9.60
2013,09,29,04,53,8.90
2013,09,29,04,54,11.00
2013,09,29,04,55,12.90
2013,09,29,04,56,12.60
2013,09,29,04,57,12.90
2013,09,29,04,58,9.90
2013,09,29,04,59,9.10
2013,09,29,05,00,7.40
2013,09,29,05,01,6.40
2013,09,29,05,02,4.80
2013,09,29,05,03,4.30
2013,09,29,05,04,4.50
2013,09,29,05,05,4.00
2013,09,29,05,06,4.40
2013,09,29,05,07,5.40
2013,09,29,05,08,5.20
2013,09,29,05,09,6.20
2013,09,29,05,10,6.70
2013,09,29,05,11,6.50
2013,09,29,05,12,6.70
2013,09,29,05,13,6.60
2013,09,29,05,14,5.80
2013,09,29,05,15,5.80
2013,09,29,05,16,4.80
2013,09,29,05,17,3.90
2013,09,29,05,18,3.30
2013,09,29,05,19,1.70
2013,09,29,05,20,1.40
2013,09,29,05,21,0.10
2013,09,29,05,22,3.50
2013,09,29,05,23,4.30
2013,09,29,05,24,6.20
2013,09,29,05,25,7.10
2013,09,29,05,26,9.80
2013,09,29,05,27,9.90
2013,09,29,05,28,10.90
2013,09,29,05,29,10.70
2013,09,29,05,30,12.10
2013,09,29,05,31,11.70
2013,09,29,05,32,13.50
2013,09,29,05,33,13.60
2013,09,29,05,34,13.40
2013,09,29,05,35,12.70
2013,09,29,05,36,11.90
2013,09,29,05,37,11.90
2013,09,29,05,38,12.10
2013,09,29,05,39,14.60
2013,09,29,05,40,16.60
2013,09,29,05,41,14.70
2013,09,29,05,42,14.00
2013,09,29,05,43,13.50
2013,09,29,05,44,13.80
2013,09,29,05,45,13.20
2013,09,29,05,46,13.20
2013,09,29,05,47,12.70
2013,09,29,05,48,12.40
2013,09,29,05,49,11.10
2013,09,29,05,50,11.00
2013,09,29,05,51,8.40
2013,09,29,05,52,9.60
2013,09,29,05,53,10.50
2013,09,29,05,54,10.20
2013,09,29,05,55,9.70
2013,09,29,05,56,10.40
2013,09,29,05,57,10.60
2013,09,29,05,58,10.10
2013,09,29,05,59,10.30
2013,09,29,06,00,10.20
2013,09,29,06,01,7.10
2013,09,29,06,02,7.90
2013,09,29,06,03,8.60
2013,09,29,06,04,8.10
2013,09,29,06,05,6.30
2013,09,29,06,06,6.10
2013,09,29,06,07,8.80
2013,09,29,06,08,8.90
2013,09,29,06,09,8.00
2013,09,29,06,10,6.40
2013,09,29,06,11,6.60
2013,09,29,06,12,6.60
2013,09,29,06,13,5.80
2013,09,29,06,14,3.90
2013,09,29,06,15,4.70
2013,09,29,06,16,5.40
2013,09,29,06,17,3.30
2013,09,29,06,18,3.60
2013,09,29,06,19,4.30
2013,09,29,06,20,7.50
2013,09,29,06,21,6.10
2013,09,29,06,22,8.80
2013,09,29,06,23,8.70
2013,09,29,06,24,7.90
2013,09,29,06,25,11.80
2013,09,29,06,26,12.00
2013,09,29,06,27,9.40
2013,09,29,06,28,9.50
2013,09,29,06,29,10.10
2013,09,29,06,30,9.90
2013,09,29,06,31,11.70
2013,09,29,06,32,11.50
2013,09,29,06,33,10.50
2013,09,29,06,34,14.60
2013,09,29,06,35,19.30
2013,09,29,06,36,19.30
2013,09,29,06,37,19.30
2013,09,29,06,38,19.30
2013,09,29,06,39,19.30
2013,09,29,06,40,19.30
2013,09,29,06,41,19.30
2013,09,29,06,42,19.30
2013,09,29,06,43,18.40
2013,09,29,06,44,17.90
2013,09,29,06,45,16.50
2013,09,29,06,46,16.30
2013,09,29,06,47,17.60
2013,09,29,06,48,18.70
2013,09,29,06,49,19.50
2013,09,29,06,50,22.20
2013,09,29,06,51,22.50
2013,09,29,06,52,18.30
2013,09,29,06,53,16.80
2013,09,29,06,54,16.70
2013,09,29,06,55,18.10
2013,09,29,06,56,18.70
2013,09,29,06,57,20.90
2013,09,29,06,58,22.20
2013,09,29,06,59,19.90
2013,09,29,07,00,19.50
2013,09,29,07,01,21.00
2013,09,29,07,02,22.90
2013,09,29,07,03,22.40
2013,09,29,07,04,23.50
2013,09,29,07,05,25.40
2013,09,29,07,06,22.90
2013,09,29,07,07,25.70
2013,09,29,07,08,24.50
2013,09,29,07,09,28.20
2013,09,29,07,10,24.90
2013,09,29,07,11,24.90
2013,09,29,07,12,23.70
2013,09,29,07,13,26.20
2013,09,29,07,14,26.60
2013,09,29,07,15,24.90
2013,09,29,07,16,21.90
2013,09,29,07,17,18.40
2013,09,29,07,18,19.60
2013,09,29,07,19,21.70
2013,09,29,07,20,19.30
2013,09,29,07,21,16.70
2013,09,29,07,22,16.30
2013,09,29,07,23,15.90
2013,09,29,07,24,13.50
2013,09,29,07,25,17.20
2013,09,29,07,26,13.80
2013,09,29,07,27,13.10
2013,09,29,07,28,15.40
2013,09,29,07,29,14.10
2013,09,29,07,30,13.50
2013,09,29,07,31,13.30
2013,09,29,07,32,11.60
2013,09,29,07,33,11.80
2013,09,29,07,34,13.30
2013,09,29,07,35,14.00
2013,09,29,07,36,12.50
2013,09,29,07,37,12.20
2013,09,29,07,38,9.00
2013,09,29,07,39,11.70
2013,09,29,07,40,12.00
2013,09,29,07,41,14.60
2013,09,29,07,42,14.40
2013,09,29,07,43,14.30
2013,09,29,07,44,15.60
2013,09,29,07,45,13.30
2013,09,29,07,46,12.60
2013,09,29,07,47,10.80
2013,09,29,07,48,11.00
2013,09,29,07,49,10.00
2013,09,29,07,50,7.80
2013,09,29,07,51,7.10
2013,09,29,07,52,6.40
2013,09,29,07,53,6.50
2013,09,29,07,54,6.40
2013,09,29,07,55,6.60
2013,09,29,07,56,4.80
2013,09,29,07,57,4.30
2013,09,29,07,58,3.70
2013,09,29,07,59,2.50
2013,09,29,08,00,4.30
2013,09,29,08,01,4.30
2013,09,29,08,02,4.60
2013,09,29,08,03,6.80
2013,09,29,08,04,6.00
2013,09,29,08,05,7.90
2013,09,29,08,06,6.80
2013,09,29,08,07,7.00
2013,09,29,08,08,4.80
2013,09,29,08,09,7.70
2013,09,29,08,10,8.00
2013,09,29,08,11,7.70
2013,09,29,08,12,8.00
2013,09,29,08,13,8.50
2013,09,29,08,14,6.30
2013,09,29,08,15,5.10
2013,09,29,08,16,4.00
2013,09,29,08,17,6.00
2013,09,29,08,18,6.50
2013,09,29,08,19,5.40
2013,09,29,08,20,5.90
2013,09,29,08,21,7.70
2013,09,29,08,22,8.60
2013,09,29,08,23,8.50
2013,09,29,08,24,10.50
2013,09,29,08,25,10.90
2013,09,29,08,26,10.50
2013,09,29,08,27,9.40
2013,09,29,08,28,8.90
2013,09,29,08,29,8.80
2013,09,29,08,30,8.00
2013,09,29,08,31,7.90
2013,09,29,08,32,8.10
2013,09,29,08,33,9.40
2013,09,29,08,34,9.00
2013,09,29,08,35,9.80
2013,09,29,08,36,11.90
2013,09,29,08,37,15.40
2013,09,29,08,38,18.90
2013,09,29,08,39,21.80
2013,09,29,08,40,24.20
2013,09,29,08,41,22.80
2013,09,29,08,42,23.40
2013,09,29,08,43,24.50
2013,09,29,08,44,24.90
2013,09,29,08,45,23.80
2013,09,29,08,46,22.50
2013,09,29,08,47,22.50
2013,09,29,08,48,23.80
2013,09,29,08,49,25.40
2013,09,29,08,50,25.30
2013,09,29,08,51,25.70
2013,09,29,08,52,27.80
2013,09,29,08,53,29.00
2013,09,29,08,54,28.50
2013,09,29,08,55,28.80
2013,09,29,08,56,30.30
2013,09,29,08,57,32.80
2013,09,29,08,58,32.20
2013,09,29,08,59,31.50
2013,09,29,09,00,30.10
2013,09,29,09,01,28.80
2013,09,29,09,02,26.80
2013,09,29,09,03,28.20
2013,09,29,09,04,27.90
2013,09,29,09,05,26.40
2013,09,29,09,06,26.10
2013,09,29,09,07,25.80
2013,09,29,09,08,26.40
2013,09,29,09,09,28.20
2013,09,29,09,10,27.90
2013,09,29,09,11,27.40
2013,09,29,09,12,27.30
2013,09,29,09,13,26.30
2013,09,29,09,14,24.90
2013,09,29,09,15,25.30
2013,09,29,09,16,25.60
2013,09,29,09,17,26.30
2013,09,29,09,18,27.40
2013,09,29,09,19,27.00
2013,09,29,09,20,23.80
2013,09,29,09,21,22.30
2013,09,29,09,22,22.40
2013,09,29,09,23,23.50
2013,09,29,09,24,23.10
2013,09,29,09,25,26.00
2013,09,29,09,26,25.40
2013,09,29,09,27,23.50
2013,09,29,09,28,22.10
2013,09,29,09,29,21.50
2013,09,29,09,30,20.80
2013,09,29,09,31,20.70
2013,09,29,09,32,19.60
2013,09,29,09,33,18.90
2013,09,29,09,34,21.20
2013,09,29,09,35,22.00
2013,09,29,09,36,22.80
2013,09,29,09,37,20.80
2013,09,29,09,38,20.00
2013,09,29,09,39,19.10
2013,09,29,09,40,16.70
2013,09,29,09,41,16.50
2013,09,29,09,42,16.00
2013,09,29,09,43,16.10
2013,09,29,09,44,15.60
2013,09,29,09,45,14.60
2013,09,29,09,46,13.40
2013,09,29,09,47,12.90
2013,09,29,09,48,13.40
2013,09,29,09,49,12.50
2013,09,29,09,50,12.80
2013,09,29,09,51,10.70
2013,09,29,09,52,8.10
2013,09,29,09,53,7.50
2013,09,29,09,54,8.20
2013,09,29,09,55,6.70
2013,09,29,09,56,6.80
2013,09,29,09,57,9.70
2013,09,29,09,58,9.90
2013,09,29,09,59,7.50
2013,09,29,10,00,8.40
2013,09,29,10,01,7.70
2013,09,29,10,02,8.40
2013,09,29,10,03,7.20
2013,09,29,10,04,8.70
2013,09,29,10,05,10.80
2013,09,29,10,06,12.50
2013,09,29,10,07,9.70
2013,09,29,10,08,7.40
2013,09,29,10,09,5.50
2013,09,29,10,10,7.10
2013,09,29,10,11,5.10
2013,09,29,10,12,6.70
2013,09,29,10,13,7.80
2013,09,29,10,14,4.40
2013,09,29,10,15,5.10
2013,09,29,10,16,5.20
2013,09,29,10,17,5.40
2013,09,29,10,18,7.10
2013,09,29,10,19,7.20
2013,09,29,10,20,7.10
2013,09,29,10,21,9.80
2013,09,29,10,22,10.60
2013,09,29,10,23,8.90
2013,09,29,10,24,11.20
2013,09,29,10,25,15.10
2013,09,29,10,26,13.90
2013,09,29,10,27,13.40
2013,09,29,10,28,14.00
2013,09,29,10,29,12.00
2013,09,29,10,30,10.70
2013,09,29,10,31,10.30
2013,09,29,10,32,10.70
2013,09,29,10,33,11.10
2013,09,29,10,34,9.70
2013,09,29,10,35,6.40
2013,09,29,10,36,8.60
2013,09,29,10,37,9.60
2013,09,29,10,38,14.20
2013,09,29,10,39,17.50
2013,09,29,10,40,15.40
2013,09,29,10,41,18.50
2013,09,29,10,42,17.40
2013,09,29,10,43,15.90
2013,09,29,10,44,17.20
2013,09,29,10,45,17.80
2013,09,29,10,46,17.40
2013,09,29,10,47,18.40
2013,09,29,10,48,18.70
2013,09,29,10,49,17.10
2013,09,29,10,50,15.40
2013,09,29,10,51,13.50
2013,09,29,10,52,12.80
2013,09,29,10,53,11.30
2013,09,29,10,54,11.90
2013,09,29,10,55,12.20
2013,09,29,10,56,12.90
2013,09,29,10,57,13.70
2013,09,29,10,58,14.20
2013,09,29,10,59,14.00
2013,09,29,11,00,13.70
2013,09,29,11,01,13.00
2013,09,29,11,02,13.50
2013,09,29,11,03,13.40
2013,09,29,11,04,13.40
2013,09,29,11,05,12.80
2013,09,29,11,06,12.20
2013,09,29,11,07,11.60
2013,09,29,11,08,11.00
2013,09,29,11,09,8.90
2013,09,29,11,10,8.40
2013,09,29,11,11,7.40
2013,09,29,11,12,5.60
2013,09,29,11,13,5.10
2013,09,29,11,14,5.00
2013,09,29,11,15,4.60
2013,09,29,11,16,5.80
2013,09,29,11,17,5.50
2013,09,29,11,18,7.70
2013,09,29,11,19,7.30
2013,09,29,11,20,7.70
2013,09,29,11,21,7.10
2013,09,29,11,22,6.80
2013,09,29,11,23,5.80
2013,09,29,11,24,6.10
2013,09,29,11,25,6.30
2013,09,29,11,26,6.20
2013,09,29,11,27,5.30
2013,09,29,11,28,6.40
2013,09,29,11,29,7.70
2013,09,29,11,30,8.20
2013,09,29,11,31,8.40
2013,09,29,11,32,6.90
2013,09,29,11,33,8.00
2013,09,29,11,34,9.90
2013,09,29,11,35,10.80
2013,09,29,11,36,12.50
2013,09,29,11,37,12.10
2013,09,29,11,38,11.90
2013,09,29,11,39,11.00
2013,09,29,11,40,8.20
2013,09,29,11,41,7.30
2013,09,29,11,42,6.80
2013,09,29,11,43,8.10
2013,09,29,11,44,9.80
2013,09,29,11,45,10.30
2013,09,29,11,46,8.90
2013,09,29,11,47,11.40
2013,09,29,11,48,10.60
2013,09,29,11,49,7.00
2013,09,29,11,50,6.40
2013,09,29,11,51,7.10
2013,09,29,11,52,7.70
2013,09,29,11,53,9.20
2013,09,29,11,54,10.80
2013,09,29,11,55,11.40
2013,09,29,11,56,10.20
2013,09,29,11,57,7.70
2013,09,29,11,58,6.50
2013,09,29,11,59,6.30
2013,09,29,12,00,5.90
2013,09,29,12,01,6.40
2013,09,29,12,02,6.40
2013,09,29,12,03,5.50
2013,09,29,12,04,4.00
2013,09,29,12,05,3.90
2013,09,29,12,06,5.10
2013,09,29,12,07,6.00
2013,09,29,12,08,6.00
2013,09,29,12,09,5.70
2013,09,29,12,10,5.40
2013,09,29,12,11,5.10
2013,09,29,12,12,6.40
2013,09,29,12,13,7.40
2013,09,29,12,14,6.90
2013,09,29,12,15,5.60
2013,09,29,12,16,5.20
2013,09,29,12,17,5.00
2013,09,29,12,18,5.50
2013,09,29,12,19,6.20
2013,09,29,12,20,8.00
2013,09,29,12,21,8.60
2013,09,29,12,22,8.30
2013,09,29,12,23,8.80
2013,09,29,12,24,9.00
2013,09,29,12,25,8.50
2013,09,29,12,26,7.30
2013,09,29,12,27,6.00
2013,09,29,12,28,4.50
2013,09,29,12,29,4.50
2013,09,29,12,30,4.10
2013,09,29,12,31,4.10
2013,09,29,12,32,5.80
2013,09,29,12,33,7.70
2013,09,29,12,34,8.20
2013,09,29,12,35,7.20
2013,09,29,12,36,5.50
2013,09,29,12,37,4.50
2013,09,29,12,38,5.10
2013,09,29,12,39,4.40
2013,09,29,12,40,5.50
2013,09,29,12,41,7.20
2013,09,29,12,42,8.60
2013,09,29,12,43,7.30
2013,09,29,12,44,7.30
2013,09,29,12,45,7.30
2013,09,29,12,46,8.60
2013,09,29,12,47,8.70
2013,09,29,12,48,9.50
2013,09,29,12,49,9.60
2013,09,29,12,50,9.30
2013,09,29,12,51,8.70
2013,09,29,12,52,7.90
2013,09,29,12,53,7.30
2013,09,29,12,54,7.50
2013,09,29,12,55,7.90
2013,09,29,12,56,7.60
2013,09,29,12,57,7.40
2013,09,29,12,58,7.80
2013,09,29,12,59,7.90
2013,09,29,13,00,7.70
2013,09,29,13,01,8.80
2013,09,29,13,02,9.50
2013,09,29,13,03,9.30
2013,09,29,13,04,9.10
2013,09,29,13,05,9.70
2013,09,29,13,06,7.90
2013,09,29,13,07,10.00
2013,09,29,13,08,9.90
2013,09,29,13,09,9.60
2013,09,29,13,10,9.50
2013,09,29,13,11,11.00
2013,09,29,13,12,10.60
2013,09,29,13,13,10.40
2013,09,29,13,14,9.00
2013,09,29,13,15,10.40
2013,09,29,13,16,11.00
2013,09,29,13,17,10.40
2013,09,29,13,18,11.40
2013,09,29,13,19,12.50
2013,09,29,13,20,13.20
2013,09,29,13,21,12.90
2013,09,29,13,22,10.50
2013,09,29,13,23,11.30
2013,09,29,13,24,11.40
2013,09,29,13,25,13.90
2013,09,29,13,26,13.30
2013,09,29,13,27,13.70
2013,09,29,13,28,15.00
2013,09,29,13,29,16.90
2013,09,29,13,30,18.30
2013,09,29,13,31,18.60
2013,09,29,13,32,18.70
2013,09,29,13,33,18.50
2013,09,29,13,34,17.80
2013,09,29,13,35,16.70
2013,09,29,13,36,16.20
2013,09,29,13,37,16.60
2013,09,29,13,38,16.70
2013,09,29,13,39,17.10
2013,09,29,13,40,16.60
2013,09,29,13,41,16.40
2013,09,29,13,42,16.10
2013,09,29,13,43,15.60
2013,09,29,13,44,15.00
2013,09,29,13,45,14.40
2013,09,29,13,46,13.50
2013,09,29,13,47,12.90
2013,09,29,13,48,12.90
2013,09,29,13,49,12.90
2013,09,29,13,50,13.30
2013,09,29,13,51,13.90
2013,09,29,13,52,14.00
2013,09,29,13,53,13.40
2013,09,29,13,54,12.90
2013,09,29,13,55,12.60
2013,09,29,13,56,11.80
2013,09,29,13,57,11.80
2013,09,29,13,58,11.30
2013,09,29,13,59,11.70
2013,09,29,14,00,11.30
2013,09,29,14,01,11.20
2013,09,29,14,02,11.80
2013,09,29,14,03,12.50
2013,09,29,14,04,12.90
2013,09,29,14,05,13.20
2013,09,29,14,06,13.30
2013,09,29,14,07,12.90
2013,09,29,14,08,12.20
2013,09,29,14,09,12.00
2013,09,29,14,10,11.90
2013,09,29,14,11,12.50
2013,09,29,14,12,11.40
2013,09,29,14,13,10.50
2013,09,29,14,14,10.10
2013,09,29,14,15,9.90
2013,09,29,14,16,9.30
2013,09,29,14,17,10.20
2013,09,29,14,18,11.40
2013,09,29,14,19,12.50
2013,09,29,14,20,11.80
2013,09,29,14,21,10.70
2013,09,29,14,22,10.00
2013,09,29,14,23,8.90
2013,09,29,14,24,9.10
2013,09,29,14,25,8.90
2013,09,29,14,26,8.30
2013,09,29,14,27,8.10
2013,09,29,14,28,7.40
2013,09,29,14,29,7.30
2013,09,29,14,30,7.00
2013,09,29,14,31,6.80
2013,09,29,14,32,7.00
2013,09,29,14,33,6.80
2013,09,29,14,34,7.30
2013,09,29,14,35,8.10
2013,09,29,14,36,9.60
2013,09,29,14,37,10.50
2013,09,29,14,38,10.00
2013,09,29,14,39,9.20
2013,09,29,14,40,7.90
2013,09,29,14,41,7.90
2013,09,29,14,42,9.00
2013,09,29,14,43,8.70
2013,09,29,14,44,8.60
2013,09,29,14,45,8.70
2013,09,29,14,46,8.70
2013,09,29,14,47,8.70
2013,09,29,14,48,9.80
2013,09,29,14,49,11.80
2013,09,29,14,50,12.90
2013,09,29,14,51,13.20
2013,09,29,14,52,12.80
2013,09,29,14,53,12.60
2013,09,29,14,54,12.00
2013,09,29,14,55,11.30
2013,09,29,14,56,10.50
2013,09,29,14,57,10.80
2013,09,29,14,58,10.40
2013,09,29,14,59,11.30
2013,09,29,15,00,12.50
2013,09,29,15,01,13.00
2013,09,29,15,02,12.70
2013,09,29,15,03,12.90
2013,09,29,15,04,13.40
2013,09,29,15,05,13.60
2013,09,29,15,06,14.40
2013,09,29,15,07,13.90
2013,09,29,15,08,14.20
2013,09,29,15,09,13.60
2013,09,29,15,10,12.60
2013,09,29,15,11,12.70
2013,09,29,15,12,15.00
2013,09,29,15,13,17.20
2013,09,29,15,14,19.60
2013,09,29,15,15,18.20
2013,09,29,15,16,17.70
2013,09,29,15,17,17.60
2013,09,29,15,18,20.10
2013,09,29,15,19,20.60
2013,09,29,15,20,20.20
2013,09,29,15,21,21.70
2013,09,29,15,22,22.50
2013,09,29,15,23,21.80
2013,09,29,15,24,21.10
2013,09,29,15,25,21.60
2013,09,29,15,26,21.80
2013,09,29,15,27,21.90
2013,09,29,15,28,20.30
2013,09,29,15,29,21.10
2013,09,29,15,30,25.70
2013,09,29,15,31,29.00
2013,09,29,15,32,29.00
2013,09,29,15,33,32.80
2013,09,29,15,34,33.30
2013,09,29,15,35,35.90
2013,09,29,15,36,37.00
2013,09,29,15,37,39.10
2013,09,29,15,38,40.30
2013,09,29,15,39,42.70
2013,09,29,15,40,42.50
2013,09,29,15,41,39.80
2013,09,29,15,42,41.70
2013,09,29,15,43,42.10
2013,09,29,15,44,44.10
2013,09,29,15,45,47.40
2013,09,29,15,46,48.80
2013,09,29,15,47,47.10
2013,09,29,15,48,45.20
2013,09,29,15,49,47.50
2013,09,29,15,50,43.30
2013,09,29,15,51,50.10
2013,09,29,15,52,51.40
2013,09,29,15,53,50.60
2013,09,29,15,54,58.10
2013,09,29,15,55,60.10
2013,09,29,15,56,61.90
2013,09,29,15,57,60.60
2013,09,29,15,58,56.90
2013,09,29,15,59,59.70
2013,09,29,16,00,56.60
2013,09,29,16,01,59.30
2013,09,29,16,02,58.30
2013,09,29,16,03,60.30
2013,09,29,16,04,59.90
2013,09,29,16,05,58.70
2013,09,29,16,06,57.00
2013,09,29,16,07,53.70
2013,09,29,16,08,54.90
2013,09,29,16,09,50.80
2013,09,29,16,10,51.30
2013,09,29,16,11,52.10
2013,09,29,16,12,51.70
2013,09,29,16,13,52.10
2013,09,29,16,14,55.60
2013,09,29,16,15,58.50
2013,09,29,16,16,55.20
2013,09,29,16,17,54.50
2013,09,29,16,18,59.90
2013,09,29,16,19,64.80
2013,09,29,16,20,58.70
2013,09,29,16,21,66.90
2013,09,29,16,22,64.40
2013,09,29,16,23,62.90
2013,09,29,16,24,66.40
2013,09,29,16,25,73.90
2013,09,29,16,26,73.80
2013,09,29,16,27,69.60
2013,09,29,16,28,70.50
2013,09,29,16,29,80.70
2013,09,29,16,30,77.30
2013,09,29,16,31,76.90
2013,09,29,16,32,81.80
2013,09,29,16,33,82.70
2013,09,29,16,34,85.50
2013,09,29,16,35,82.40
2013,09,29,16,36,78.90
2013,09,29,16,37,81.50
2013,09,29,16,38,85.60
2013,09,29,16,39,83.40
2013,09,29,16,40,81.90
2013,09,29,16,41,84.90
2013,09,29,16,42,87.40
2013,09,29,16,43,83.50
2013,09,29,16,44,85.40
2013,09,29,16,45,79.90
2013,09,29,16,46,82.30
2013,09,29,16,47,81.00
2013,09,29,16,48,86.30
2013,09,29,16,49,79.30
2013,09,29,16,50,83.30
2013,09,29,16,51,83.80
2013,09,29,16,52,85.10
2013,09,29,16,53,86.90
2013,09,29,16,54,80.20
2013,09,29,16,55,86.60
2013,09,29,16,56,87.50
2013,09,29,16,57,85.10
2013,09,29,16,58,83.50
2013,09,29,16,59,78.40
2013,09,29,17,00,80.50
2013,09,29,17,01,81.90
2013,09,29,17,02,78.70
2013,09,29,17,03,80.00
2013,09,29,17,04,79.80
2013,09,29,17,05,80.70
2013,09,29,17,06,77.70
2013,09,29,17,07,76.20
2013,09,29,17,08,77.60
2013,09,29,17,09,77.60
2013,09,29,17,10,76.50
2013,09,29,17,11,77.80
2013,09,29,17,12,76.40
2013,09,29,17,13,74.00
2013,09,29,17,14,79.70
2013,09,29,17,15,74.90
2013,09,29,17,16,79.20
2013,09,29,17,17,76.50
2013,09,29,17,18,77.30
2013,09,29,17,19,78.50
2013,09,29,17,20,75.70
2013,09,29,17,21,86.00
2013,09,29,17,22,79.20
2013,09,29,17,23,85.30
2013,09,29,17,24,86.10
2013,09,29,17,25,85.70
2013,09,29,17,26,88.70
2013,09,29,17,27,91.10
2013,09,29,17,28,88.80
2013,09,29,17,29,90.30
2013,09,29,17,30,92.50
2013,09,29,17,31,96.60
2013,09,29,17,32,93.30
2013,09,29,17,33,97.80
2013,09,29,17,34,86.50
2013,09,29,17,35,91.30
2013,09,29,17,36,85.50